CHINASAT 2C (ZX 2C)

Last updated on May 21, 2019, 3:10 a.m. UTC

1 41021U 15063A   19140.70466005 -.00000333  00000-0  00000+0 0  9995
2 41021   0.0637  83.1007 0002847 319.9450 192.0882  1.00268512 13095
UTC
Height (km)
Latitude
Longitude
Inclination
Orbital Period
UTC large
Height (km)
Speed (km/s)
/
Latitude / Longitude
Inclination (degrees)
Orbital Period (minutes)
Azimuth
Elevation
Range (km)
Doppler Factor
iOS Compass Heading
iOS Angle

Next 30 passes for location: Hong Kong

Rise time Rise Azimuth (degrees) Set time Set Azimuth (degrees) Duration Max altitude (degrees)

No matching passes for this satellites